When you browse on this site, cookies collect data to enhance your experience and personalize the content and advertising you see.
Visit our Privacy Policy to learn more. By continuing to use the site, you agree to this use of cookies and data.
  • In Sweden
  • List of Countries
  • For 7 days
  • Water Temperature
  • Satellite Maps
  • Weather Map
  • Weather Widgets
  • user-avatar
    Login

    Hourly Weather Townsville

    Today, 19 July, Friday

    Time Temperature Precipitation Wind Pressure Humidity
    00:00 +14°C° 0 mm 2 mps 757 mmHg 73%
    01:00 +14°C° 0 mm 2 mps 756 mmHg 74%
    02:00 +14°C° 0 mm 2 mps 756 mmHg 75%
    03:00 +13°C° 0 mm 2 mps 756 mmHg 76%
    04:00 +13°C° 0 mm 2 mps 756 mmHg 77%
    05:00 +13°C° 0 mm 2 mps 757 mmHg 75%
    06:00 +12°C° 0 mm 2 mps 757 mmHg 74%
    07:00 +12°C° 0 mm 2 mps 757 mmHg 72%
    08:00 +15°C° 0 mm 2 mps 757 mmHg 60%
    09:00 +17°C° 0 mm 2 mps 758 mmHg 48%
    10:00 +20°C° 0 mm 2 mps 758 mmHg 35%
    11:00 +21°C° 0 mm 3 mps 757 mmHg 33%
    12:00 +22°C° 0 mm 3 mps 757 mmHg 30%
    13:00 +25°C° 0 mm 3 mps 756 mmHg 27%
    14:00 +24°C° 0 mm 3 mps 756 mmHg 31%
    15:00 +22°C° 0 mm 3 mps 756 mmHg 35%
    16:00 +21°C° 0 mm 4 mps 755 mmHg 39%
    17:00 +19°C° 0 mm 3 mps 756 mmHg 46%
    18:00 +17°C° 0 mm 2 mps 756 mmHg 53%
    19:00 +15°C° 0 mm 2 mps 756 mmHg 61%
    20:00 +15°C° 0 mm 2 mps 756 mmHg 63%
    21:00 +15°C° 0 mm 2 mps 757 mmHg 65%
    22:00 +14°C° 0 mm 2 mps 757 mmHg 67%
    23:00 +14°C° 0 mm 2 mps 757 mmHg 70%

    Tomorrow, 20 July, Saturday

    Time Temperature Precipitation Wind Pressure Humidity
    00:00 +14°C° 0 mm 2 mps 757 mmHg 72%
    01:00 +13°C° 0 mm 2 mps 757 mmHg 74%
    02:00 +13°C° 0 mm 2 mps 757 mmHg 76%
    03:00 +13°C° 0 mm 2 mps 757 mmHg 78%
    04:00 +13°C° 0 mm 2 mps 756 mmHg 80%
    05:00 +13°C° 0 mm 2 mps 757 mmHg 81%
    06:00 +12°C° 0 mm 2 mps 757 mmHg 83%
    07:00 +12°C° 0 mm 2 mps 757 mmHg 84%
    08:00 +15°C° 0 mm 2 mps 757 mmHg 73%
    09:00 +17°C° 0 mm 2 mps 757 mmHg 63%
    10:00 +20°C° 0 mm 2 mps 758 mmHg 52%
    11:00 +21°C° 0 mm 2 mps 757 mmHg 50%
    12:00 +22°C° 0 mm 3 mps 756 mmHg 48%
    13:00 +24°C° 0 mm 3 mps 756 mmHg 46%
    14:00 +22°C° 0 mm 3 mps 756 mmHg 50%
    15:00 +22°C° 0 mm 3 mps 755 mmHg 55%
    16:00 +22°C° 0 mm 4 mps 755 mmHg 59%
    17:00 +20°C° 0 mm 3 mps 755 mmHg 67%
    18:00 +18°C° 0 mm 2 mps 756 mmHg 76%
    19:00 +17°C° 0 mm 2 mps 756 mmHg 84%
    20:00 +16°C° 0 mm 2 mps 756 mmHg 86%
    21:00 +16°C° 0 mm 2 mps 756 mmHg 87%
    22:00 +16°C° 0 mm 2 mps 756 mmHg 89%
    23:00 +15°C° 0 mm 2 mps 756 mmHg 89%

    Day after tomorrow, 21 July, Sunday

    Time Temperature Precipitation Wind Pressure Humidity
    00:00 +15°C° 0 mm 2 mps 756 mmHg 90%
    01:00 +15°C° 0 mm 2 mps 756 mmHg 90%
    02:00 +15°C° 0 mm 2 mps 755 mmHg 90%
    03:00 +15°C° 0 mm 2 mps 755 mmHg 90%
    04:00 +15°C° 0 mm 2 mps 755 mmHg 90%
    05:00 +15°C° 0 mm 2 mps 755 mmHg 91%
    06:00 +15°C° 0 mm 2 mps 755 mmHg 91%
    07:00 +15°C° 0 mm 2 mps 756 mmHg 92%
    08:00 +17°C° 0 mm 2 mps 756 mmHg 81%
    09:00 +20°C° 0 mm 2 mps 756 mmHg 71%
    10:00 +23°C° 0 mm 2 mps 756 mmHg 60%
    11:00 +24°C° 0 mm 2 mps 755 mmHg 56%
    12:00 +25°C° 0 mm 2 mps 755 mmHg 52%
    13:00 +26°C° 0 mm 3 mps 754 mmHg 48%
    14:00 +25°C° 0 mm 3 mps 753 mmHg 51%
    15:00 +25°C° 0 mm 3 mps 753 mmHg 53%
    16:00 +24°C° 0 mm 3 mps 753 mmHg 56%
    17:00 +23°C° 0 mm 2 mps 753 mmHg 65%
    18:00 +21°C° 0 mm 1 mps 753 mmHg 75%
    19:00 +19°C° 0 mm 1 mps 754 mmHg 85%
    20:00 +19°C° 0 mm 1 mps 754 mmHg 86%
    21:00 +18°C° 0 mm 1 mps 754 mmHg 88%
    22:00 +18°C° 0 mm 1 mps 755 mmHg 89%
    23:00 +18°C° 0 mm 1 mps 754 mmHg 89%

    22 July, Monday

    Time Temperature Precipitation Wind Pressure Humidity
    00:00 +17°C° 0 mm 2 mps 754 mmHg 90%
    01:00 +17°C° 0 mm 2 mps 754 mmHg 91%
    02:00 +16°C° 0 mm 2 mps 754 mmHg 91%
    03:00 +16°C° 0 mm 2 mps 754 mmHg 91%
    04:00 +16°C° 0 mm 2 mps 754 mmHg 91%
    05:00 +16°C° 0 mm 2 mps 754 mmHg 92%
    06:00 +16°C° 0 mm 2 mps 754 mmHg 92%
    07:00 +16°C° 0 mm 2 mps 755 mmHg 92%
    08:00 +19°C° 0 mm 2 mps 755 mmHg 82%
    09:00 +21°C° 0 mm 2 mps 755 mmHg 73%
    10:00 +24°C° 0 mm 2 mps 755 mmHg 63%
    11:00 +25°C° 0 mm 2 mps 755 mmHg 60%
    12:00 +26°C° 0 mm 3 mps 754 mmHg 56%
    13:00 +27°C° 0 mm 3 mps 754 mmHg 53%
    14:00 +26°C° 0 mm 3 mps 753 mmHg 57%
    15:00 +26°C° 0 mm 3 mps 753 mmHg 60%
    16:00 +25°C° 0 mm 4 mps 753 mmHg 63%
    17:00 +24°C° 0 mm 3 mps 753 mmHg 72%
    18:00 +21°C° 0 mm 3 mps 754 mmHg 81%
    19:00 +19°C° 0 mm 3 mps 754 mmHg 90%
    20:00 +19°C° 0 mm 3 mps 754 mmHg 91%
    21:00 +19°C° 0 mm 3 mps 755 mmHg 93%
    22:00 +19°C° 0 mm 3 mps 755 mmHg 94%
    23:00 +18°C° 0 mm 3 mps 755 mmHg 94%

    23 July, Tuesday

    Time Temperature Precipitation Wind Pressure Humidity
    00:00 +18°C° 0 mm 3 mps 755 mmHg 94%
    01:00 +18°C° 0 mm 3 mps 755 mmHg 94%
    02:00 +18°C° 0 mm 3 mps 755 mmHg 94%
    03:00 +18°C° 0 mm 3 mps 754 mmHg 94%
    04:00 +17°C° 0 mm 3 mps 754 mmHg 94%
    05:00 +17°C° 0 mm 3 mps 755 mmHg 94%
    06:00 +17°C° 0 mm 3 mps 755 mmHg 94%
    07:00 +17°C° 0 mm 3 mps 756 mmHg 94%
    08:00 +19°C° 0 mm 3 mps 756 mmHg 84%
    09:00 +22°C° 0 mm 3 mps 756 mmHg 75%
    10:00 +25°C° 0 mm 3 mps 756 mmHg 66%
    11:00 +26°C° 0 mm 3 mps 756 mmHg 63%
    12:00 +27°C° 0 mm 4 mps 755 mmHg 60%
    13:00 +27°C° 0 mm 4 mps 755 mmHg 57%
    14:00 +27°C° 0 mm 4 mps 755 mmHg 61%
    15:00 +26°C° 0 mm 4 mps 754 mmHg 64%
    16:00 +25°C° 0 mm 5 mps 754 mmHg 68%
    17:00 +23°C° 0.1 mm 4 mps 755 mmHg 75%
    18:00 +22°C° 0.1 mm 4 mps 755 mmHg 82%
    19:00 +21°C° 0.1 mm 4 mps 756 mmHg 89%
    20:00 +20°C° 0.2 mm 4 mps 756 mmHg 89%
    21:00 +20°C° 0.2 mm 4 mps 756 mmHg 89%
    22:00 +20°C° 0.2 mm 4 mps 757 mmHg 89%
    23:00 +20°C° 0.1 mm 4 mps 757 mmHg 90%

    24 July, Wednesday

    Time Temperature Precipitation Wind Pressure Humidity
    00:00 +20°C° 0.1 mm 4 mps 757 mmHg 91%
    01:00 +19°C° 0.1 mm 4 mps 757 mmHg 92%
    02:00 +19°C° 0.1 mm 4 mps 756 mmHg 93%
    03:00 +19°C° 0.1 mm 4 mps 756 mmHg 93%
    04:00 +18°C° 0.1 mm 4 mps 756 mmHg 94%
    05:00 +18°C° 0.1 mm 4 mps 757 mmHg 94%
    06:00 +18°C° 0.1 mm 3 mps 757 mmHg 94%
    07:00 +18°C° 0.1 mm 3 mps 757 mmHg 94%
    08:00 +19°C° 0 mm 4 mps 758 mmHg 86%
    09:00 +21°C° 0 mm 4 mps 758 mmHg 79%
    10:00 +23°C° 0 mm 4 mps 758 mmHg 71%
    11:00 +23°C° 0.1 mm 4 mps 758 mmHg 69%
    12:00 +25°C° 0.1 mm 5 mps 757 mmHg 66%
    13:00 +25°C° 0.1 mm 5 mps 756 mmHg 63%
    14:00 +25°C° 0.2 mm 5 mps 756 mmHg 66%
    15:00 +23°C° 0.2 mm 5 mps 756 mmHg 68%
    16:00 +23°C° 0.2 mm 5 mps 756 mmHg 71%
    17:00 +22°C° 0.1 mm 4 mps 756 mmHg 75%
    18:00 +21°C° 0.1 mm 4 mps 757 mmHg 80%
    19:00 +20°C° 0.1 mm 4 mps 757 mmHg 84%
    20:00 +19°C° 0 mm 4 mps 757 mmHg 85%
    21:00 +19°C° 0 mm 4 mps 758 mmHg 85%
    22:00 +18°C° 0 mm 4 mps 758 mmHg 86%
    23:00 +19°C° 0 mm 4 mps 758 mmHg 84%
    Show more